When you browse on this site, cookies collect data to enhance your experience and personalize the content and advertising you see.
Visit our Privacy Policy to learn more. By continuing to use the site, you agree to this use of cookies and data.
  • In Latvia
  • List of Countries
  • For 7 days
  • Water Temperature
  • Satellite Maps
  • Weather Map
  • Weather Widgets
  • user-avatar
    Login

    Hourly Weather Mons

    Today, 20 February, Wednesday

    Time Temperature Precipitation Wind Pressure Humidity
    00:00 +5°C° 0 mm 2 mps 763 mmHg 87%
    01:00 +4°C° 0 mm 2 mps 763 mmHg 88%
    02:00 +3°C° 0 mm 3 mps 763 mmHg 90%
    03:00 +3°C° 0 mm 3 mps 763 mmHg 91%
    04:00 +3°C° 0 mm 3 mps 763 mmHg 92%
    05:00 +3°C° 0 mm 3 mps 763 mmHg 93%
    06:00 +2°C° 0 mm 3 mps 763 mmHg 94%
    07:00 +3°C° 0 mm 3 mps 764 mmHg 91%
    08:00 +4°C° 0 mm 4 mps 764 mmHg 88%
    09:00 +5°C° 0 mm 4 mps 764 mmHg 84%
    10:00 +7°C° 0 mm 4 mps 764 mmHg 78%
    11:00 +8°C° 0 mm 4 mps 764 mmHg 71%
    12:00 +10°C° 0 mm 4 mps 764 mmHg 65%
    13:00 +11°C° 0 mm 4 mps 764 mmHg 64%
    14:00 +11°C° 0 mm 4 mps 764 mmHg 63%
    15:00 +11°C° 0 mm 3 mps 764 mmHg 62%
    16:00 +10°C° 0 mm 3 mps 764 mmHg 69%
    17:00 +9°C° 0 mm 3 mps 765 mmHg 75%
    18:00 +7°C° 0 mm 2 mps 765 mmHg 81%
    19:00 +7°C° 0 mm 2 mps 765 mmHg 84%
    20:00 +7°C° 0 mm 2 mps 765 mmHg 86%
    21:00 +5°C° 0 mm 3 mps 766 mmHg 88%
    22:00 +5°C° 0 mm 3 mps 766 mmHg 89%
    23:00 +5°C° 0 mm 3 mps 766 mmHg 90%

    Tomorrow, 21 February, Thursday

    Time Temperature Precipitation Wind Pressure Humidity
    00:00 +5°C° 0 mm 3 mps 766 mmHg 92%
    01:00 +5°C° 0 mm 3 mps 766 mmHg 92%
    02:00 +5°C° 0 mm 3 mps 766 mmHg 92%
    03:00 +5°C° 0 mm 3 mps 766 mmHg 92%
    04:00 +5°C° 0 mm 3 mps 767 mmHg 92%
    05:00 +5°C° 0 mm 3 mps 767 mmHg 93%
    06:00 +4°C° 0 mm 3 mps 767 mmHg 93%
    07:00 +5°C° 0 mm 3 mps 767 mmHg 90%
    08:00 +7°C° 0 mm 2 mps 767 mmHg 88%
    09:00 +8°C° 0 mm 2 mps 768 mmHg 85%
    10:00 +10°C° 0 mm 2 mps 768 mmHg 78%
    11:00 +12°C° 0 mm 2 mps 768 mmHg 72%
    12:00 +13°C° 0 mm 3 mps 768 mmHg 65%
    13:00 +14°C° 0 mm 2 mps 768 mmHg 66%
    14:00 +14°C° 0 mm 2 mps 768 mmHg 66%
    15:00 +14°C° 0 mm 2 mps 768 mmHg 67%
    16:00 +13°C° 0 mm 2 mps 768 mmHg 72%
    17:00 +12°C° 0 mm 1 mps 769 mmHg 78%
    18:00 +9°C° 0 mm 0 mps 769 mmHg 84%
    19:00 +10°C° 0 mm 1 mps 769 mmHg 85%
    20:00 +10°C° 0 mm 1 mps 770 mmHg 86%
    21:00 +9°C° 0 mm 1 mps 770 mmHg 87%
    22:00 +9°C° 0 mm 1 mps 770 mmHg 88%
    23:00 +9°C° 0 mm 1 mps 771 mmHg 89%

    Day after tomorrow, 22 February, Friday

    Time Temperature Precipitation Wind Pressure Humidity
    00:00 +8°C° 0 mm 1 mps 771 mmHg 89%
    01:00 +8°C° 0 mm 1 mps 771 mmHg 90%
    02:00 +8°C° 0 mm 1 mps 771 mmHg 90%
    03:00 +8°C° 0 mm 1 mps 771 mmHg 90%
    04:00 +7°C° 0 mm 1 mps 772 mmHg 90%
    05:00 +7°C° 0 mm 1 mps 772 mmHg 91%
    06:00 +6°C° 0 mm 0 mps 772 mmHg 91%
    07:00 +7°C° 0 mm 0 mps 772 mmHg 87%
    08:00 +9°C° 0 mm 1 mps 773 mmHg 84%
    09:00 +10°C° 0 mm 1 mps 773 mmHg 81%
    10:00 +12°C° 0 mm 1 mps 773 mmHg 75%
    11:00 +13°C° 0 mm 1 mps 773 mmHg 70%
    12:00 +15°C° 0 mm 2 mps 773 mmHg 64%
    13:00 +15°C° 0 mm 2 mps 773 mmHg 64%
    14:00 +16°C° 0 mm 2 mps 773 mmHg 63%
    15:00 +16°C° 0 mm 1 mps 773 mmHg 62%
    16:00 +14°C° 0 mm 2 mps 773 mmHg 69%
    17:00 +13°C° 0 mm 2 mps 773 mmHg 76%
    18:00 +10°C° 0 mm 3 mps 773 mmHg 83%
    19:00 +10°C° 0 mm 3 mps 773 mmHg 85%
    20:00 +9°C° 0 mm 3 mps 773 mmHg 87%
    21:00 +9°C° 0 mm 3 mps 773 mmHg 89%
    22:00 +8°C° 0 mm 3 mps 773 mmHg 90%
    23:00 +8°C° 0 mm 2 mps 773 mmHg 91%

    23 February, Saturday

    Time Temperature Precipitation Wind Pressure Humidity
    00:00 +8°C° 0 mm 2 mps 773 mmHg 92%
    01:00 +8°C° 0 mm 2 mps 773 mmHg 92%
    02:00 +8°C° 0 mm 2 mps 772 mmHg 92%
    03:00 +7°C° 0 mm 2 mps 772 mmHg 92%
    04:00 +7°C° 0 mm 2 mps 772 mmHg 93%
    05:00 +7°C° 0 mm 2 mps 772 mmHg 93%
    06:00 +6°C° 0 mm 2 mps 772 mmHg 93%
    07:00 +7°C° 0 mm 2 mps 772 mmHg 88%
    08:00 +8°C° 0 mm 3 mps 772 mmHg 83%
    09:00 +9°C° 0 mm 3 mps 772 mmHg 79%
    10:00 +11°C° 0 mm 3 mps 772 mmHg 72%
    11:00 +12°C° 0 mm 3 mps 772 mmHg 65%
    12:00 +13°C° 0 mm 3 mps 772 mmHg 58%
    13:00 +14°C° 0 mm 3 mps 771 mmHg 57%
    14:00 +14°C° 0 mm 3 mps 771 mmHg 56%
    15:00 +14°C° 0 mm 3 mps 771 mmHg 55%
    16:00 +14°C° 0 mm 2 mps 771 mmHg 59%
    17:00 +12°C° 0 mm 2 mps 771 mmHg 64%
    18:00 +9°C° 0 mm 2 mps 771 mmHg 69%
    19:00 +8°C° 0 mm 2 mps 772 mmHg 68%
    20:00 +8°C° 0 mm 3 mps 772 mmHg 67%
    21:00 +7°C° 0 mm 3 mps 772 mmHg 66%
    22:00 +6°C° 0 mm 2 mps 772 mmHg 67%
    23:00 +5°C° 0 mm 2 mps 772 mmHg 67%

    24 February, Sunday

    Time Temperature Precipitation Wind Pressure Humidity
    00:00 +5°C° 0 mm 2 mps 772 mmHg 67%
    01:00 +4°C° 0 mm 2 mps 772 mmHg 68%
    02:00 +5°C° 0 mm 1 mps 772 mmHg 68%
    03:00 +5°C° 0 mm 1 mps 772 mmHg 69%
    04:00 +5°C° 0 mm 1 mps 772 mmHg 67%
    05:00 +3°C° 0 mm 2 mps 772 mmHg 66%
    06:00 +3°C° 0 mm 2 mps 772 mmHg 64%
    07:00 +4°C° 0 mm 2 mps 772 mmHg 60%
    08:00 +6°C° 0 mm 2 mps 772 mmHg 55%
    09:00 +7°C° 0 mm 2 mps 773 mmHg 51%
    10:00 +8°C° 0 mm 2 mps 773 mmHg 46%
    11:00 +10°C° 0 mm 2 mps 772 mmHg 41%
    12:00 +12°C° 0 mm 1 mps 772 mmHg 37%
    13:00 +13°C° 0 mm 2 mps 772 mmHg 38%
    14:00 +13°C° 0 mm 2 mps 772 mmHg 40%
    15:00 +14°C° 0 mm 2 mps 772 mmHg 42%
    16:00 +12°C° 0 mm 2 mps 772 mmHg 47%
    17:00 +9°C° 0 mm 2 mps 772 mmHg 51%
    18:00 +8°C° 0 mm 2 mps 772 mmHg 56%
    19:00 +7°C° 0 mm 2 mps 773 mmHg 58%
    20:00 +7°C° 0 mm 2 mps 773 mmHg 59%
    21:00 +6°C° 0 mm 2 mps 773 mmHg 61%
    22:00 +7°C° 0 mm 1 mps 773 mmHg 61%
    23:00 +6°C° 0 mm 1 mps 773 mmHg 61%

    25 February, Monday

    Time Temperature Precipitation Wind Pressure Humidity
    00:00 +6°C° 0 mm 1 mps 773 mmHg 61%
    01:00 +6°C° 0 mm 1 mps 773 mmHg 60%
    02:00 +5°C° 0 mm 2 mps 773 mmHg 59%
    03:00 +5°C° 0 mm 2 mps 773 mmHg 58%
    04:00 +5°C° 0 mm 2 mps 773 mmHg 58%
    05:00 +5°C° 0 mm 2 mps 773 mmHg 57%
    06:00 +5°C° 0 mm 2 mps 773 mmHg 57%
    07:00 +6°C° 0 mm 2 mps 774 mmHg 56%
    08:00 +7°C° 0 mm 3 mps 774 mmHg 55%
    09:00 +8°C° 0 mm 3 mps 774 mmHg 54%
    10:00 +10°C° 0 mm 3 mps 774 mmHg 52%
    11:00 +11°C° 0 mm 4 mps 774 mmHg 50%
    12:00 +13°C° 0 mm 4 mps 774 mmHg 48%
    13:00 +14°C° 0 mm 4 mps 773 mmHg 49%
    14:00 +14°C° 0 mm 4 mps 773 mmHg 51%
    15:00 +16°C° 0 mm 3 mps 773 mmHg 52%
    16:00 +13°C° 0 mm 3 mps 773 mmHg 57%
    17:00 +11°C° 0 mm 4 mps 773 mmHg 63%
    18:00 +8°C° 0 mm 4 mps 773 mmHg 68%
    19:00 +8°C° 0 mm 4 mps 773 mmHg 70%
    20:00 +8°C° 0 mm 3 mps 773 mmHg 72%
    21:00 +8°C° 0 mm 3 mps 774 mmHg 74%
    22:00 +7°C° 0 mm 3 mps 773 mmHg 76%
    23:00 +7°C° 0 mm 3 mps 773 mmHg 77%
    Show more